Kittila current weather conditions

sailwx.info

Wind from 310 at 12 knots

Air temperature -6.0° C
Visibility: greater than 5.4 NM
Dewpoint -10.0° C

Last reported at 2020-Jan-22 13:50 UTC.
Time now 2020-Jan-22 15:24 UTC

Location: N 67°42' E 024°51'.
View on Google Maps.

See reports from other nearby stations

  
Tides and Currents Weather Stations Pressure Air Temp Water Temp Dewpoint Dewpoint Depression Visibility Wind Speed Wind Dir Waves Ship Positions
date/time (UTC)wind fromknots sea level pressurealtimeterstation pressurevisibilityair tempwater tempwave heightnotes
2020-Jan-22 14:50 330 8 5.4-7.0
2020-Jan-22 14:20 310 9 5.4-7.0
2020-Jan-22 13:50 310 12 5.4-6.0
2020-Jan-22 13:20 320 9 5.4-7.0
2020-Jan-22 12:50 320 7 5.4-7.0
2020-Jan-22 12:20 320 6 5.4-9.0
2020-Jan-22 11:50 310 6 5.4-8.0
2020-Jan-22 11:20 310 5 5.4-8.0
2020-Jan-22 10:50 300 4 5.4-7.0
2020-Jan-22 10:20 310 7 5.4-7.0
2020-Jan-22 09:50 340 14 5.4-6.0
2020-Jan-22 09:20 340 15 gusting 27 5.4-5.0
2020-Jan-22 08:50 320 8 gusting 21 5.4-6.0
2020-Jan-22 08:20 320 6 5.4-5.0
2020-Jan-22 07:50 310 6 5.4-6.0
2020-Jan-22 07:20 240 2 5.4-6.0 Light snow showers.
2020-Jan-22 06:50 340 8 5.4-7.0 Light snow.
2020-Jan-22 06:20 340 8 5.4-6.0
2020-Jan-22 05:50 340 12 5.4-6.0
2020-Jan-22 05:20 340 11 5.4-6.0
2020-Jan-22 04:50 340 12 5.4-6.0
2020-Jan-22 04:20 330 8 5.4-5.0
2020-Jan-22 03:50 340 9 5.4-6.0
2020-Jan-22 03:20 340 11 5.4-6.0
2020-Jan-22 02:50 350 12 5.4-5.0
2020-Jan-22 02:20 340 8 5.4-4.0
2020-Jan-22 01:50 350 11 5.4-5.0
2020-Jan-22 01:20 340 11 5.4-4.0
2020-Jan-22 00:50 340 8 5.4-4.0
2020-Jan-22 00:20 320 7 5.4-5.0
2020-Jan-21 23:50 310 7 5.4-4.0
2020-Jan-21 23:20 300 9 gusting 20 5.4-5.0
2020-Jan-21 22:50 300 11 5.4-5.0
2020-Jan-21 22:20 280 6 5.4-5.0
2020-Jan-21 21:50 270 7 5.4-5.0
2020-Jan-21 21:20 290 7 5.4-6.0
2020-Jan-21 20:50 280 5 5.4-7.0
2020-Jan-21 20:20 5.4-6.0
2020-Jan-21 19:50 5.4-6.0
2020-Jan-21 19:20 5.4-6.0
2020-Jan-21 18:50 270 2 5.4-5.0
2020-Jan-21 18:20 280 5 5.4-5.0
2020-Jan-21 17:50 270 6 5.4-5.0
2020-Jan-21 17:20 270 4 5.4-5.0
2020-Jan-21 16:50 270 6 5.4-5.0
2020-Jan-21 16:20 270 6 5.4-5.0
2020-Jan-21 15:50 270 6 5.4-5.0
2020-Jan-21 15:20 270 9 5.4-4.0
2020-Jan-21 14:50 270 11 5.4-4.0
2020-Jan-21 14:20 270 11 5.4-4.0
2020-Jan-21 13:50 280 8 5.4-4.0
2020-Jan-21 13:20 270 9 5.4-4.0
2020-Jan-21 12:50 280 8 5.4-4.0
2020-Jan-21 12:20 270 9 5.4-4.0
2020-Jan-21 11:50 270 8 5.4-3.0
2020-Jan-21 11:20 280 6 5.4-3.0
2020-Jan-21 10:50 280 9 5.4-2.0
2020-Jan-21 10:20 270 13 5.4-2.0
2020-Jan-21 09:50 270 11 5.4-2.0
2020-Jan-21 09:20 280 6 5.4-2.0
2020-Jan-21 08:50 300 4 5.4-2.0
2020-Jan-21 08:20 270 6 5.4-1.0
2020-Jan-21 07:50 280 8 5.4-1.0
2020-Jan-21 07:20 280 7 5.4-1.0 Light snow showers.
2020-Jan-21 06:50 270 7 5.4-1.0 Light snow showers.
2020-Jan-21 06:20 240 7 5.4-1.0
2020-Jan-21 05:50 230 6 5.4-2.0
2020-Jan-21 05:20 240 11 5.4-2.0
2020-Jan-21 04:50 230 6 5.4-2.0
2020-Jan-21 04:20 230 6 5.4-3.0
2020-Jan-21 03:50 270 4 5.4-2.0
2020-Jan-21 03:20 280 6 5.4-2.0
2020-Jan-21 02:50 250 5 5.4-1.0
2020-Jan-21 02:20 290 6 5.4-2.0
2020-Jan-21 01:50 300 8 5.4-1.0
2020-Jan-21 01:20 300 7 5.4-0.0
2020-Jan-21 00:50 300 8 5.4-0.0
2020-Jan-21 00:20 310 11 5.4 1.0
2020-Jan-20 23:50 300 9 5.4 1.0
2020-Jan-20 23:20 350 6 5.4-1.0
2020-Jan-20 22:50 300 7 5.4 1.0
2020-Jan-20 22:20 280 7 5.4 1.0
2020-Jan-20 21:50 270 6 5.4 1.0
2020-Jan-20 21:20 280 5 5.4 1.0
2020-Jan-20 20:50 240 6 4.9 1.0
2020-Jan-20 20:20 230 8 5.4 1.0 Light snow.
2020-Jan-20 19:50 220 8 5.4-0.0 Light snow.
2020-Jan-20 19:20 220 6 5.4-0.0 Light snow.
2020-Jan-20 18:50 210 6 5.4-0.0 Light snow.
2020-Jan-20 18:20 200 8 3.8-0.0 Light freezing drizzle. Snow.
2020-Jan-20 17:50 210 7 5.4-0.0 Light snow.
2020-Jan-20 17:20 240 11 5.4-0.0
2020-Jan-20 16:50 240 9 5.4-0.0
2020-Jan-20 16:20 230 13 5.4-1.0
2020-Jan-20 15:50 200 2 5.4-3.0
2020-Jan-20 15:20 150 4 5.4-3.0